South Pass, WY

11:51 AM MDT on April 25, 2017 (GMT -0600)
South Pass

Weather History for KFWZ - September, 2012

Change the Weather History Date:

Monday, September 10, 2012

  Actual Average (KLND) Record (KLND)
Temperature  
Mean Temperature 63 °F -  
Max Temperature 71 °F 77 °F 87 °F (1959)
Min Temperature 53 °F 47 °F 31 °F (1928)
Degree Days  
Heating Degree Days 2    
Growing Degree Days 13 (Base 50)    
Moisture  
Dew Point 36 °F    
Average Humidity 41    
Maximum Humidity 67    
Minimum Humidity 25    
Precipitation  
Precipitation 0.13 in - - ()
Sea Level Pressure  
Sea Level Pressure 30.15 in    
Wind  
Wind Speed 12 mph ()    
Max Wind Speed 22 mph    
Max Gust Speed 39 mph    
Visibility 10.0 miles    
Events Rain , Thunderstorm    
Averages and records for this station are not official NWS values.
T = Trace of Precipitation, MM = Missing Value Source: Averaged Metar Reports

Daily Weather History Graph

Daily Weather History Graph

Search for Another Location

Airport or City:

Trip Planner

Search our weather history database for the weather conditions in past years. The results will help you decide how hot, cold, wet, or windy it might be!

Date:

Astronomy

Sep. 10, 2012 Rise Set
Actual Time 6:50 AM MDT 7:32 PM MDT
Civil Twilight 6:21 AM MDT 8:01 PM MDT
Nautical Twilight 5:48 AM MDT 8:34 PM MDT
Astronomical Twilight 5:13 AM MDT 9:09 PM MDT
Moon 1:08 AM MDT (9/10) 4:09 PM MDT (9/10)
Length of Visible Light 13h 39m
Length of Day
12h 42m
Waning Crescent, 29% of the Moon is Illuminated
Sep 10
Waning Crescent
Sep 15
New
Sep 22
First Quarter
Sep 29
Full
Oct 8
Last Quarter

Hourly Weather History & Observations

Time (MDT) Temp. Dew Point Humidity Pressure Visibility Wind Dir Wind Speed Gust Speed Precip Events Conditions
12:15 AM 60.8 °F 32.0 °F 34% 30.21 in 10.0 mi West 6.9 mph - N/A   Clear
12:35 AM 62.6 °F 33.8 °F 34% 30.21 in 10.0 mi West 8.1 mph 17.3 mph N/A   Clear
12:55 AM 62.6 °F 33.8 °F 34% 30.20 in 10.0 mi West 9.2 mph - N/A   Clear
1:15 AM 62.6 °F 33.8 °F 34% 30.20 in 10.0 mi West 4.6 mph 16.1 mph N/A   Clear
1:35 AM 62.6 °F 33.8 °F 34% 30.19 in 10.0 mi West 11.5 mph 16.1 mph N/A   Clear
1:55 AM 62.6 °F 33.8 °F 34% 30.18 in 10.0 mi West 9.2 mph 18.4 mph N/A   Clear
2:15 AM 62.6 °F 32.0 °F 32% 30.18 in 10.0 mi West 10.4 mph 17.3 mph N/A   Clear
2:35 AM 62.6 °F 32.0 °F 32% 30.19 in 10.0 mi South 11.5 mph - N/A   Clear
2:55 AM 55.4 °F 32.0 °F 41% 30.18 in 10.0 mi SSW 8.1 mph - N/A   Clear
3:15 AM 55.4 °F 32.0 °F 41% 30.18 in 10.0 mi SSW 9.2 mph 18.4 mph N/A   Clear
3:35 AM 57.2 °F 32.0 °F 38% 30.17 in 10.0 mi WSW 17.3 mph 20.7 mph N/A   Clear
3:55 AM 59.0 °F 32.0 °F 36% 30.16 in 10.0 mi SW 16.1 mph 20.7 mph N/A   Clear
4:15 AM 59.0 °F 32.0 °F 36% 30.16 in 10.0 mi WSW 17.3 mph 23.0 mph N/A   Clear
4:35 AM 59.0 °F 32.0 °F 36% 30.16 in 10.0 mi WSW 15.0 mph 21.9 mph N/A   Clear
4:55 AM 59.0 °F 32.0 °F 36% 30.15 in 10.0 mi WSW 18.4 mph 23.0 mph N/A   Clear
5:15 AM 59.0 °F 32.0 °F 36% 30.14 in 10.0 mi WSW 20.7 mph 25.3 mph N/A   Clear
5:35 AM 59.0 °F 32.0 °F 36% 30.14 in 10.0 mi WSW 18.4 mph 25.3 mph N/A   Clear
5:55 AM 59.0 °F 32.0 °F 36% 30.14 in 10.0 mi WSW 18.4 mph 26.5 mph N/A   Clear
6:15 AM 59.0 °F 32.0 °F 36% 30.13 in 10.0 mi WSW 19.6 mph 25.3 mph N/A   Clear
6:35 AM 57.2 °F 32.0 °F 38% 30.13 in 10.0 mi WSW 21.9 mph 26.5 mph N/A   Clear
6:55 AM 57.2 °F 32.0 °F 38% 30.13 in 10.0 mi WSW 19.6 mph 25.3 mph N/A   Clear
7:15 AM 57.2 °F 32.0 °F 38% 30.14 in 10.0 mi SW 19.6 mph 25.3 mph N/A   Clear
7:35 AM 59.0 °F 32.0 °F 36% 30.15 in 10.0 mi WSW 16.1 mph 23.0 mph N/A   Clear
7:55 AM 59.0 °F 32.0 °F 36% 30.15 in 10.0 mi WSW 12.7 mph 20.7 mph N/A   Clear
8:15 AM 55.4 °F 32.0 °F 41% 30.16 in 10.0 mi WSW 13.8 mph 19.6 mph N/A   Clear
8:35 AM 55.4 °F 32.0 °F 41% 30.16 in 10.0 mi WSW 11.5 mph - N/A   Clear
8:55 AM 55.4 °F 32.0 °F 41% 30.17 in 10.0 mi WSW 12.7 mph 18.4 mph N/A   Clear
9:15 AM 55.4 °F 32.0 °F 41% 30.17 in 10.0 mi WSW 12.7 mph - N/A   Clear
9:35 AM 55.4 °F 32.0 °F 41% 30.17 in 10.0 mi WSW 12.7 mph 18.4 mph N/A   Clear
9:55 AM 59.0 °F 33.8 °F 39% 30.17 in 10.0 mi SW 15.0 mph 19.6 mph N/A   Clear
10:15 AM 64.4 °F 33.8 °F 32% 30.18 in 10.0 mi WSW 18.4 mph 25.3 mph N/A   Clear
10:35 AM 66.2 °F 33.8 °F 30% 30.18 in 10.0 mi SW 15.0 mph 21.9 mph N/A   Clear
10:55 AM 66.2 °F 33.8 °F 30% 30.18 in 10.0 mi WSW 16.1 mph 25.3 mph N/A   Scattered Clouds
11:15 AM 68.0 °F 33.8 °F 28% 30.18 in 10.0 mi WSW 18.4 mph 27.6 mph N/A   Mostly Cloudy
11:35 AM 64.4 °F 33.8 °F 32% 30.19 in 10.0 mi WSW 15.0 mph 20.7 mph N/A Rain Light Rain
11:55 AM 62.6 °F 35.6 °F 37% 30.19 in 10.0 mi WSW 13.8 mph - N/A Rain Light Rain
12:15 PM 64.4 °F 33.8 °F 32% 30.18 in 10.0 mi WSW 16.1 mph 21.9 mph N/A   Unknown
12:35 PM 68.0 °F 35.6 °F 30% 30.17 in 10.0 mi WSW 15.0 mph 21.9 mph N/A Thunderstorm Unknown
12:55 PM 68.0 °F 35.6 °F 30% 30.17 in 10.0 mi WSW 15.0 mph 25.3 mph N/A   Clear
1:15 PM 69.8 °F 35.6 °F 28% 30.16 in 10.0 mi SSW 16.1 mph 23.0 mph N/A   Scattered Clouds
1:35 PM 68.0 °F 35.6 °F 30% 30.15 in 10.0 mi WSW 16.1 mph 23.0 mph N/A   Mostly Cloudy
1:55 PM 71.6 °F 33.8 °F 25% 30.14 in 10.0 mi SW 15.0 mph 23.0 mph N/A   Mostly Cloudy
2:15 PM 64.4 °F 42.8 °F 45% 30.14 in 10.0 mi WSW 19.6 mph 39.1 mph N/A Rain Rain
2:35 PM 55.4 °F 44.6 °F 67% 30.15 in 10.0 mi WNW 11.5 mph - 0.13 in Thunderstorm Thunderstorm
2:55 PM 62.6 °F 46.4 °F 55% 30.14 in 10.0 mi WSW 13.8 mph 21.9 mph 0.13 in   Scattered Clouds
3:15 PM 64.4 °F 44.6 °F 49% 30.12 in 10.0 mi WSW 17.3 mph 24.2 mph N/A   Scattered Clouds
3:35 PM 66.2 °F 41.0 °F 40% 30.13 in 10.0 mi SW 20.7 mph 29.9 mph N/A   Scattered Clouds
3:55 PM 64.4 °F 42.8 °F 45% 30.15 in 10.0 mi West 17.3 mph 28.8 mph N/A   Clear
4:15 PM 64.4 °F 41.0 °F 42% 30.15 in 10.0 mi West 10.4 mph 23.0 mph N/A   Clear
4:35 PM 64.4 °F 41.0 °F 42% 30.14 in 10.0 mi WSW 19.6 mph 25.3 mph N/A   Clear
4:55 PM 62.6 °F 41.0 °F 45% 30.14 in 10.0 mi WSW 17.3 mph 25.3 mph N/A   Clear
5:15 PM 64.4 °F 41.0 °F 42% 30.16 in 10.0 mi WSW 15.0 mph 26.5 mph N/A   Clear
5:35 PM 62.6 °F 35.6 °F 37% 30.14 in 10.0 mi West 10.4 mph 24.2 mph N/A Thunderstorm Scattered Clouds
5:55 PM 62.6 °F 37.4 °F 39% 30.13 in 10.0 mi WSW 13.8 mph 18.4 mph N/A   Scattered Clouds
6:15 PM 62.6 °F 41.0 °F 45% 30.13 in 10.0 mi WSW 15.0 mph 21.9 mph N/A   Clear
6:35 PM 60.8 °F 41.0 °F 48% 30.13 in 10.0 mi SW 11.5 mph 21.9 mph N/A   Clear
6:55 PM 60.8 °F 42.8 °F 52% 30.13 in 10.0 mi WSW 9.2 mph 17.3 mph N/A   Clear
7:15 PM 59.0 °F 41.0 °F 51% 30.12 in 10.0 mi WSW 13.8 mph 20.7 mph N/A   Clear
7:35 PM 59.0 °F 41.0 °F 51% 30.12 in 10.0 mi SW 9.2 mph 16.1 mph N/A   Clear
7:55 PM 57.2 °F 41.0 °F 55% 30.11 in 10.0 mi SW 6.9 mph - N/A   Clear
8:15 PM 57.2 °F 41.0 °F 55% 30.12 in 10.0 mi WSW 9.2 mph - N/A   Clear
8:35 PM 57.2 °F 41.0 °F 55% 30.12 in 10.0 mi WSW 10.4 mph - N/A   Clear
8:55 PM 55.4 °F 41.0 °F 58% 30.13 in 10.0 mi WSW 6.9 mph - N/A   Clear
9:15 PM 55.4 °F 41.0 °F 58% 30.14 in 10.0 mi WSW 9.2 mph - N/A   Clear
9:35 PM 55.4 °F 41.0 °F 58% 30.13 in 10.0 mi West 13.8 mph 17.3 mph N/A   Clear
9:55 PM 57.2 °F 41.0 °F 55% 30.13 in 10.0 mi West 11.5 mph 18.4 mph N/A   Clear
10:15 PM 57.2 °F 41.0 °F 55% 30.13 in 10.0 mi WSW 12.7 mph 20.7 mph N/A   Clear
10:55 PM 57.2 °F 39.2 °F 51% 30.13 in 10.0 mi WSW 12.7 mph 20.7 mph N/A   Clear
11:15 PM 55.4 °F 41.0 °F 58% 30.13 in 10.0 mi West 8.1 mph 16.1 mph N/A   Clear
11:35 PM 55.4 °F 41.0 °F 58% 30.13 in 10.0 mi West 6.9 mph - N/A   Clear
11:55 PM 53.6 °F 41.0 °F 62% 30.13 in 10.0 mi SW 5.8 mph - N/A   Clear